Flag for Canada Weather past 2 weeks in Regina, Saskatchewan, Canada

Now
9 °F

Low level haze.


Feels Like: -9 °F
Forecast: 1 / 23 °F
Wind: 16 mph from Southeast

Location: Regina Weather Station

Current Time: Mar 2, 2015 at 10:48:40 AM

Latest Report: Mar 2, 2015 at 10:00 AM


Visibility: 15 mi

Pressure: 29.92 "Hg

Humidity: 85%

Dew point: 5 °F

Location of ReginaLocation

Historic Weather in Regina — Graph

°F

Regina temperature yesterday

Maximum temperature yesterday: 16 °F (at 2:00 PM)
Minimum temperature yesterday: 0 °F (at 11:00 PM)
Average temperature yesterday: 7 °F

Past Weeks' High & Low Weather Summary

 TemperatureHumidityPressure
High32 °F (Feb 23, 4:00 PM)100% (Feb 15, 8:00 PM)30.87 "Hg (Feb 15, 8:00 PM)
Low-27 °F (Feb 22, 3:00 AM)62% (Feb 23, 7:00 AM)29.80 "Hg (Feb 20, 12:00 AM)
Average2 °F82%30.33 "Hg
* Reported Feb 15 9:00 AM — Mar 2 9:00 AM, Regina, Weather by CustomWeather, © 2015

Note: Actual official high and low records may vary slightly from our data, if they occured in-between our weather recording intervals... More about our weather records

Advertising

Regina weather history for previous 24 hours

 ConditionsComfort  
Time TempWeatherWind HumidityBarometerVisibility
9:00 AM
Mon, Mar 2
7 °FBroken clouds.15 mph85%29.94 "Hg15 mi
8:00 AM1 °FPartly sunny.15 mph85%29.97 "Hg15 mi
7:00 AM3 °FPassing clouds.22 mph85%30.01 "Hg15 mi
6:00 AM1 °FPassing clouds.17 mph85%30.06 "Hg15 mi
5:00 AM1 °FClear.17 mph78%30.10 "Hg15 mi
4:00 AM1 °FClear.17 mph85%30.15 "Hg15 mi
3:00 AM1 °FClear.17 mph78%30.20 "Hg15 mi
2:00 AM0 °FClear.15 mph78%30.23 "Hg15 mi
1:00 AM0 °FClear.15 mph84%30.26 "Hg15 mi
12:00 AM3 °FClear.15 mph85%30.28 "Hg15 mi
11:00 PM
Sun, Mar 1
0 °FPassing clouds.10 mph92%30.32 "Hg15 mi
10:00 PM1 °FClear.10 mph92%30.34 "Hg15 mi
9:00 PM7 °FClear.8 mph85%30.35 "Hg15 mi
8:00 PM3 °FClear.7 mph92%30.38 "Hg15 mi
7:00 PM3 °FClear.7 mph92%30.37 "Hg15 mi
6:00 PM10 °FSunny.7 mph85%30.37 "Hg15 mi
5:00 PM14 °FSunny.5 mph79%30.39 "Hg15 mi
4:00 PM16 °FPassing clouds.10 mph79%30.40 "Hg15 mi
3:00 PM16 °FPassing clouds.12 mph79%30.39 "Hg15 mi
2:00 PM16 °FPartly sunny.17 mph86%30.40 "Hg15 mi
1:00 PM12 °FPartly sunny.10 mph92%30.41 "Hg15 mi
12:00 PM12 °FPartly sunny.12 mph92%30.40 "Hg15 mi
11:00 AM7 °FBroken clouds.7 mph85%30.40 "Hg10 mi
10:00 AM1 °FScattered clouds.6 mph92%30.39 "Hg15 mi
Weather by CustomWeather, © 2015

See weather overviewHow to use our weather pages